STARLINK-30810, 58178

Orbit data source: Space-Track

STARLINK-30810, 58178 is a payload satellite owned by SpaceX/Seattle (US) in LEO that was launched on Mon, 30 Oct 2023 UTC via an FALCON 9 launch vehicle from the Air Force Eastern Test Range (AFETR). Payload-class satellites include a variety of spacecraft equipped with specific instruments for various scientific and technological missions. These include communications satellites like Starlink; space stations such as the ISS; scientific satellites like the Hubble; Earth observation satellites from companies like Planet Labs, Umbra, and HawkEye 360; GPS; miniature CubeSats for education and research; and military/defense satellites.

Loading next visibility...
Identifier
58178, 2023-167D
Orbit
LEO
Country
Flag of USUS
Related business
Manufacturer
SpaceX/Seattle
Mission
Operational Commercial Communications
Bus & Motor
STARLINK V2M, Unknown motor
Mass
730 kg wet, ~700 kg dry
Launch date (UTC)
2023-10-30 (3 years ago)
Launch vehicle
FALCON 9
Launch site
Air Force Eastern Test Range (AFETR)
Object type
Payload
Rocket body
Debris
Shape & HBR
Box + 2 Pan, 17.7 m
Radar Cross Section
33.884 m², Large (>1 m²)

Expand to show TLE details & history
Last TLE update: 2 days ago

TLE from 2 days ago
0 STARLINK-30810
1 58178U 23167D   26171.37143050  .00000464  00000-0  26380-4 0  9995
2 58178  43.0032 283.1173 0001454 278.2851  81.7836 15.27579079146696
Epoch: 2026-06-20T08:54Z
TLE epoch observation values (Epoch: 2026-06-20T08:54:51.595Z)
Latitude
0.00001°
Longitude
-119.18468°
Altitude
482.685 km
Speed
7.626 km/s
True Right ascension
18h 52m 28s
True Declination
0° 00' 00"
Sunlit
Object was in full shadow at epoch
Visualization orbit readout
Latitude
Unknown
Longitude
Unknown
Altitude
Unknown
Speed
Unknown
Apparent Right ascension
Unknown
Apparent Declination
Unknown
Sunlit
N/A
Visualization observer readout
Local Sidereal Time
23:07:31
Azimuth
Unknown
Elevation
Unknown
Doppler factor
Unknown
Orbital elements
Apogee altitude
485.994 km
Perigee altitude
483.999 km
Semi-major axis
6,863.133 km
Eccentricity
0.00015
Inclination
43.0032°
RAAN
283.1173°
Arg. of periapsis
278.2851°
True anomaly
81.80009°
Mean anomaly
81.7836°
Eccentric anomaly
81.79185°
Mean motion
3.81733 °/min
Orbital period
94.31 mins
BSTAR
0.00002638
Loading maneuver chart data...
Computing Atmospheric mass density...
Loading historical data...
Loading historical data...
Loading historical data...
Loading historical data...
Loading historical data...
Loading historical data...
Loading historical data...

Documentation

Showing up to 5 results
|